Time,TemperatureF,DewpointF,PressureIn,WindDirection,WindDirectionDegrees,WindSpeedMPH,WindSpeedGustMPH,Humidity,HourlyPrecipIn,Conditions,Clouds,dailyrainin,SolarRadiationWatts/m^2,SoftwareType,DateUTC
2013-04-26 00:00:00,38.7,35.2,30.32,SSW,196,1.0,8.0,87,0.00,RA,,0.00,0.0,WeatherDisplay:10.37,2013-04-26 04:00:00,
2013-04-26 00:05:00,38.9,35.4,30.32,SSW,194,3.0,6.0,87,0.00,RA,,0.00,0.0,WeatherDisplay:10.37,2013-04-26 04:05:00,
2013-04-26 00:10:00,38.9,35.4,30.32,South,189,2.0,8.0,87,0.00,FEW,,0.00,0.0,WeatherDisplay:10.37,2013-04-26 04:10:00,
2013-04-26 00:15:00,38.9,35.4,30.33,SSW,192,3.0,7.0,87,0.00,FEW,,0.00,0.0,WeatherDisplay:10.37,2013-04-26 04:15:00,
2013-04-26 00:20:00,38.9,35.4,30.33,South,188,2.0,5.0,87,0.00,FEW,,0.00,0.0,WeatherDisplay:10.37,2013-04-26 04:20:00,
2013-04-26 00:25:00,38.7,35.2,30.33,SSW,201,1.0,6.0,87,0.00,FEW,,0.00,0.0,WeatherDisplay:10.37,2013-04-26 04:25:00,
2013-04-26 00:30:00,38.6,35.1,30.33,SSW,197,2.0,6.0,87,0.00,FEW,,0.00,0.0,WeatherDisplay:10.37,2013-04-26 04:30:00,
2013-04-26 00:35:00,38.4,34.9,30.33,South,188,1.0,6.0,87,0.00,FEW,,0.00,0.0,WeatherDisplay:10.37,2013-04-26 04:35:00,
2013-04-26 00:40:00,38.3,34.8,30.33,South,182,2.0,5.0,87,0.00,FEW,,0.00,0.0,WeatherDisplay:10.37,2013-04-26 04:40:00,
2013-04-26 00:45:00,38.1,34.6,30.33,South,181,2.0,5.0,87,0.00,FEW,,0.00,0.0,WeatherDisplay:10.37,2013-04-26 04:45:00,
2013-04-26 00:50:00,38.1,34.6,30.33,South,189,2.0,5.0,87,0.00,FEW,,0.00,0.0,WeatherDisplay:10.37,2013-04-26 04:50:00,
2013-04-26 00:55:00,38.1,34.6,30.33,SSW,192,1.0,5.0,87,0.00,FEW,,0.00,0.0,WeatherDisplay:10.37,2013-04-26 04:55:00,
2013-04-26 01:00:00,38.0,34.5,30.34,SSW,192,1.0,5.0,87,0.00,FEW,,0.00,0.0,WeatherDisplay:10.37,2013-04-26 05:00:00,
2013-04-26 01:05:00,37.9,34.4,30.34,SSW,192,0.0,3.0,87,0.00,FEW,,0.00,0.0,WeatherDisplay:10.37,2013-04-26 05:05:00,
2013-04-26 01:10:00,37.9,34.4,30.34,SSW,192,3.0,5.0,87,0.00,FEW,,0.00,0.0,WeatherDisplay:10.37,2013-04-26 05:10:00,
2013-04-26 01:15:00,37.9,34.4,30.34,SSW,192,1.0,6.0,87,0.00,FEW,,0.00,0.0,WeatherDisplay:10.37,2013-04-26 05:15:00,
2013-04-26 01:20:00,37.8,34.2,30.34,SSW,192,2.0,5.0,87,0.00,SKC,,0.00,0.0,WeatherDisplay:10.37,2013-04-26 05:20:00,
2013-04-26 01:25:00,37.9,34.1,30.34,SSW,192,1.0,4.0,86,0.00,SKC,,0.00,0.0,WeatherDisplay:10.37,2013-04-26 05:25:00,
2013-04-26 01:30:00,37.9,34.1,30.34,SSW,192,1.0,4.0,86,0.00,SKC,,0.00,0.0,WeatherDisplay:10.37,2013-04-26 05:30:00,
2013-04-26 01:35:00,37.7,33.9,30.34,SSW,192,0.0,2.0,86,0.00,SKC,,0.00,0.0,WeatherDisplay:10.37,2013-04-26 05:35:00,
2013-04-26 01:40:00,37.6,33.8,30.34,SSW,192,1.0,3.0,86,0.00,SKC,,0.00,0.0,WeatherDisplay:10.37,2013-04-26 05:40:00,
2013-04-26 01:45:00,37.4,33.6,30.35,SSW,192,0.0,4.0,86,0.00,SKC,,0.00,0.0,WeatherDisplay:10.37,2013-04-26 05:45:00,
2013-04-26 01:50:00,37.2,33.7,30.35,SSW,192,0.0,3.0,87,0.00,SKC,,0.00,0.0,WeatherDisplay:10.37,2013-04-26 05:50:00,
2013-04-26 01:55:00,37.1,33.6,30.35,South,191,2.0,5.0,87,0.00,SKC,,0.00,0.0,WeatherDisplay:10.37,2013-04-26 05:55:00,
2013-04-26 02:00:00,37.0,33.5,30.35,South,190,1.0,5.0,87,0.00,SKC,,0.00,0.0,WeatherDisplay:10.37,2013-04-26 06:00:00,
2013-04-26 02:05:00,37.0,33.8,30.35,South,190,0.0,4.0,88,0.00,SKC,,0.00,0.0,WeatherDisplay:10.37,2013-04-26 06:05:00,
2013-04-26 02:10:00,37.0,33.8,30.35,South,190,0.0,4.0,88,0.00,SKC,,0.00,0.0,WeatherDisplay:10.37,2013-04-26 06:10:00,
2013-04-26 02:15:00,36.8,33.6,30.35,South,190,0.0,4.0,88,0.00,SKC,,0.00,0.0,WeatherDisplay:10.37,2013-04-26 06:15:00,
2013-04-26 02:20:00,36.7,33.5,30.35,South,190,1.0,4.0,88,0.00,SKC,,0.00,0.0,WeatherDisplay:10.37,2013-04-26 06:20:00,
2013-04-26 02:25:00,36.7,33.8,30.35,South,190,1.0,4.0,89,0.00,SKC,,0.00,0.0,WeatherDisplay:10.37,2013-04-26 06:25:00,
2013-04-26 02:35:00,36.7,33.8,30.35,South,186,0.0,5.0,89,0.00,SKC,,0.00,0.0,WeatherDisplay:10.37,2013-04-26 06:35:00,
2013-04-26 02:40:00,36.7,33.8,30.35,South,185,2.0,4.0,89,0.00,SKC,,0.00,0.0,WeatherDisplay:10.37,2013-04-26 06:40:00,
2013-04-26 02:45:00,36.6,33.7,30.35,South,185,2.0,4.0,89,0.00,SKC,,0.00,0.0,WeatherDisplay:10.37,2013-04-26 06:45:00,
2013-04-26 02:55:00,36.6,33.7,30.35,South,181,2.0,5.0,89,0.00,SKC,,0.00,0.0,WeatherDisplay:10.37,2013-04-26 06:55:00,
2013-04-26 03:00:00,36.4,33.5,30.35,South,177,0.0,3.0,89,0.00,SKC,,0.00,0.0,WeatherDisplay:10.37,2013-04-26 07:00:00,
2013-04-26 03:05:00,36.3,33.4,30.35,South,177,2.0,4.0,89,0.00,SKC,,0.00,0.0,WeatherDisplay:10.37,2013-04-26 07:05:00,
2013-04-26 03:10:00,36.3,33.4,30.35,South,177,1.0,4.0,89,0.00,SKC,,0.00,0.0,WeatherDisplay:10.37,2013-04-26 07:10:00,
2013-04-26 03:15:00,36.3,33.4,30.35,South,173,2.0,6.0,89,0.00,SKC,,0.00,0.0,WeatherDisplay:10.37,2013-04-26 07:15:00,
2013-04-26 03:20:00,36.3,33.4,30.35,SSE,168,2.0,4.0,89,0.00,SKC,,0.00,0.0,WeatherDisplay:10.37,2013-04-26 07:20:00,
2013-04-26 03:25:00,36.1,33.2,30.35,SSE,167,0.0,4.0,89,0.00,SKC,,0.00,0.0,WeatherDisplay:10.37,2013-04-26 07:25:00,
2013-04-26 03:30:00,36.1,33.2,30.36,SSE,167,1.0,3.0,89,0.00,SKC,,0.00,0.0,WeatherDisplay:10.37,2013-04-26 07:30:00,
2013-04-26 03:35:00,36.0,33.1,30.36,South,175,1.0,7.0,89,0.00,SKC,,0.00,0.0,WeatherDisplay:10.37,2013-04-26 07:35:00,
2013-04-26 03:40:00,36.0,33.1,30.36,South,180,0.0,2.0,89,0.00,SKC,,0.00,0.0,WeatherDisplay:10.37,2013-04-26 07:40:00,
2013-04-26 03:45:00,35.8,32.9,30.36,South,179,0.0,5.0,89,0.00,SKC,,0.00,0.0,WeatherDisplay:10.37,2013-04-26 07:45:00,
2013-04-26 03:50:00,35.7,32.8,30.36,South,179,0.0,2.0,89,0.00,SKC,,0.00,0.0,WeatherDisplay:10.37,2013-04-26 07:50:00,
2013-04-26 03:55:00,35.6,32.7,30.36,South,179,0.0,0.0,89,0.00,SKC,,0.00,0.0,WeatherDisplay:10.37,2013-04-26 07:55:00,
2013-04-26 04:00:00,35.6,32.7,30.37,South,179,1.0,5.0,89,0.00,SKC,,0.00,0.0,WeatherDisplay:10.37,2013-04-26 08:00:00,
2013-04-26 04:05:00,35.6,32.7,30.37,South,180,0.0,1.0,89,0.00,SKC,,0.00,0.0,WeatherDisplay:10.37,2013-04-26 08:05:00,
2013-04-26 04:10:00,35.5,32.3,30.37,South,180,0.0,2.0,88,0.00,SKC,,0.00,0.0,WeatherDisplay:10.37,2013-04-26 08:10:00,
2013-04-26 04:15:00,35.4,32.2,30.38,South,180,0.0,0.0,88,0.00,SKC,,0.00,0.0,WeatherDisplay:10.37,2013-04-26 08:15:00,
2013-04-26 04:20:00,35.3,32.1,30.38,South,180,0.0,3.0,88,0.00,SKC,,0.00,0.0,WeatherDisplay:10.37,2013-04-26 08:20:00,
2013-04-26 04:25:00,35.3,31.8,30.38,South,180,0.0,3.0,87,0.00,SKC,,0.00,0.0,WeatherDisplay:10.37,2013-04-26 08:25:00,
2013-04-26 04:30:00,35.1,31.6,30.38,South,180,0.0,0.0,87,0.00,SKC,,0.00,0.0,WeatherDisplay:10.37,2013-04-26 08:30:00,
2013-04-26 04:35:00,35.1,31.6,30.38,South,180,0.0,0.0,87,0.00,SKC,,0.00,0.0,WeatherDisplay:10.37,2013-04-26 08:35:00,
2013-04-26 04:40:00,35.0,31.5,30.38,South,180,0.0,0.0,87,0.00,SKC,,0.00,0.0,WeatherDisplay:10.37,2013-04-26 08:40:00,
2013-04-26 04:45:00,34.8,31.3,30.39,South,180,0.0,0.0,87,0.00,SKC,,0.00,0.0,WeatherDisplay:10.37,2013-04-26 08:45:00,
2013-04-26 04:50:00,34.8,31.3,30.39,South,180,0.0,2.0,87,0.00,SKC,,0.00,0.0,WeatherDisplay:10.37,2013-04-26 08:50:00,
2013-04-26 04:55:00,34.7,30.9,30.39,South,180,0.0,0.0,86,0.00,SKC,,0.00,0.0,WeatherDisplay:10.37,2013-04-26 08:55:00,
2013-04-26 05:00:00,34.6,30.8,30.39,South,180,0.0,0.0,86,0.00,SKC,,0.00,0.0,WeatherDisplay:10.37,2013-04-26 09:00:00,
2013-04-26 05:05:00,34.4,30.6,30.39,South,180,0.0,0.0,86,0.00,SKC,,0.00,0.0,WeatherDisplay:10.37,2013-04-26 09:05:00,
2013-04-26 05:10:00,34.3,30.5,30.39,South,180,0.0,2.0,86,0.00,SKC,,0.00,0.0,WeatherDisplay:10.37,2013-04-26 09:10:00,
2013-04-26 05:15:00,34.1,30.4,30.40,South,180,0.0,2.0,86,0.00,SKC,,0.00,0.0,WeatherDisplay:10.37,2013-04-26 09:15:00,
2013-04-26 05:20:00,34.1,30.4,30.40,South,180,0.0,2.0,86,0.00,SKC,,0.00,0.0,WeatherDisplay:10.37,2013-04-26 09:20:00,
2013-04-26 05:25:00,34.2,30.5,30.40,South,180,0.0,1.0,86,0.00,SKC,,0.00,0.0,WeatherDisplay:10.37,2013-04-26 09:25:00,
2013-04-26 05:30:00,34.3,30.5,30.40,South,180,1.0,4.0,86,0.00,SKC,,0.00,0.0,WeatherDisplay:10.37,2013-04-26 09:30:00,
2013-04-26 05:35:00,34.7,30.6,30.40,South,181,0.0,5.0,85,0.00,SKC,,0.00,0.0,WeatherDisplay:10.37,2013-04-26 09:35:00,
2013-04-26 05:40:00,34.8,30.8,30.40,South,179,1.0,5.0,85,0.00,SKC,,0.00,0.0,WeatherDisplay:10.37,2013-04-26 09:40:00,
2013-04-26 05:45:00,35.1,30.8,30.40,South,180,1.0,5.0,84,0.00,SKC,,0.00,0.0,WeatherDisplay:10.37,2013-04-26 09:45:00,
2013-04-26 05:50:00,35.3,30.7,30.40,South,182,0.0,2.0,83,0.00,SKC,,0.00,0.0,WeatherDisplay:10.37,2013-04-26 09:50:00,
2013-04-26 05:55:00,35.3,30.7,30.40,South,182,1.0,4.0,83,0.00,SKC,,0.00,0.0,WeatherDisplay:10.37,2013-04-26 09:55:00,
2013-04-26 06:00:00,35.4,30.8,30.41,South,182,0.0,0.0,83,0.00,SKC,,0.00,0.0,WeatherDisplay:10.37,2013-04-26 10:00:00,
2013-04-26 06:05:00,35.3,30.4,30.41,South,182,0.0,0.0,82,0.00,SKC,,0.00,0.0,WeatherDisplay:10.37,2013-04-26 10:05:00,
2013-04-26 06:10:00,35.1,30.2,30.41,South,181,1.0,2.0,82,0.00,SKC,,0.00,0.0,WeatherDisplay:10.37,2013-04-26 10:10:00,
2013-04-26 06:15:00,35.1,30.2,30.41,South,182,0.0,3.0,82,0.00,SKC,,0.00,0.0,WeatherDisplay:10.37,2013-04-26 10:15:00,
2013-04-26 06:20:00,35.1,30.2,30.41,South,182,0.0,2.0,82,0.00,SKC,,0.00,0.0,WeatherDisplay:10.37,2013-04-26 10:20:00,
2013-04-26 06:25:00,35.3,30.1,30.41,South,182,0.0,3.0,81,0.00,SKC,,0.00,0.0,WeatherDisplay:10.37,2013-04-26 10:25:00,
2013-04-26 06:30:00,35.3,30.1,30.42,South,182,0.0,2.0,81,0.00,SKC,,0.00,0.0,WeatherDisplay:10.37,2013-04-26 10:30:00,
2013-04-26 06:35:00,35.3,30.1,30.42,South,182,0.0,4.0,81,0.00,SKC,,0.00,0.0,WeatherDisplay:10.37,2013-04-26 10:35:00,
2013-04-26 06:40:00,35.3,30.1,30.42,South,182,0.0,3.0,81,0.00,SKC,,0.00,0.0,WeatherDisplay:10.37,2013-04-26 10:40:00,
2013-04-26 06:45:00,35.3,30.1,30.43,South,182,0.0,1.0,81,0.00,SKC,,0.00,0.0,WeatherDisplay:10.37,2013-04-26 10:45:00,
2013-04-26 06:50:00,35.4,30.1,30.43,South,182,1.0,3.0,81,0.00,SKC,,0.00,0.0,WeatherDisplay:10.37,2013-04-26 10:50:00,
2013-04-26 06:55:00,35.6,30.3,30.43,South,190,0.0,5.0,81,0.00,SKC,,0.00,0.0,WeatherDisplay:10.37,2013-04-26 10:55:00,
2013-04-26 07:00:00,35.8,30.2,30.43,SSW,198,2.0,5.0,80,0.00,SKC,,0.00,0.0,WeatherDisplay:10.37,2013-04-26 11:00:00,
2013-04-26 07:05:00,36.0,30.5,30.43,SSW,198,1.0,5.0,80,0.00,SKC,,0.00,0.0,WeatherDisplay:10.37,2013-04-26 11:05:00,
2013-04-26 07:10:00,36.3,30.4,30.43,SSW,198,1.0,4.0,79,0.00,SKC,,0.00,0.0,WeatherDisplay:10.37,2013-04-26 11:10:00,
2013-04-26 07:15:00,36.6,30.4,30.44,SSW,198,0.0,4.0,78,0.00,SKC,,0.00,0.0,WeatherDisplay:10.37,2013-04-26 11:15:00,
2013-04-26 07:20:00,36.8,30.3,30.44,SSW,198,0.0,6.0,77,0.00,SKC,,0.00,0.0,WeatherDisplay:10.37,2013-04-26 11:20:00,
2013-04-26 07:25:00,37.1,30.6,30.44,SSW,198,2.0,5.0,77,0.00,SKC,,0.00,0.0,WeatherDisplay:10.37,2013-04-26 11:25:00,
2013-04-26 07:30:00,37.6,30.4,30.45,SSW,199,3.0,6.0,75,0.00,SKC,,0.00,42.0,WeatherDisplay:10.37,2013-04-26 11:30:00,
2013-04-26 07:35:00,38.0,30.4,30.45,SSW,200,2.0,5.0,74,0.00,SKC,,0.00,40.0,WeatherDisplay:10.37,2013-04-26 11:35:00,
2013-04-26 07:40:00,38.3,30.7,30.45,SSW,199,2.0,4.0,74,0.00,SKC,,0.00,0.0,WeatherDisplay:10.37,2013-04-26 11:40:00,
2013-04-26 07:45:00,38.7,30.8,30.45,SSW,198,3.0,5.0,73,0.00,SKC,,0.00,37.0,WeatherDisplay:10.37,2013-04-26 11:45:00,
2013-04-26 07:50:00,39.0,31.1,30.45,SSW,199,1.0,5.0,73,0.00,SKC,,0.00,35.0,WeatherDisplay:10.37,2013-04-26 11:50:00,
2013-04-26 07:55:00,39.4,31.1,30.45,SW,224,5.0,7.0,72,0.00,SKC,,0.00,21.0,WeatherDisplay:10.37,2013-04-26 11:55:00,
2013-04-26 08:00:00,39.8,31.2,30.46,WSW,239,2.0,5.0,71,0.00,SKC,,0.00,30.0,WeatherDisplay:10.37,2013-04-26 12:00:00,
2013-04-26 08:05:00,40.2,31.2,30.46,WSW,242,2.0,6.0,70,0.00,SKC,,0.00,42.0,WeatherDisplay:10.37,2013-04-26 12:05:00,
2013-04-26 08:10:00,40.6,31.2,30.46,WSW,244,3.0,5.0,69,0.00,SKC,,0.00,0.0,WeatherDisplay:10.37,2013-04-26 12:10:00,
2013-04-26 08:15:00,41.0,31.2,30.46,WSW,244,2.0,5.0,68,0.00,SKC,,0.00,0.0,WeatherDisplay:10.37,2013-04-26 12:15:00,
2013-04-26 08:20:00,41.3,31.2,30.46,WSW,244,0.0,5.0,67,0.00,SKC,,0.00,0.0,WeatherDisplay:10.37,2013-04-26 12:20:00,
2013-04-26 08:25:00,41.8,31.7,30.46,WSW,244,2.0,4.0,67,0.00,SKC,,0.00,0.0,WeatherDisplay:10.37,2013-04-26 12:25:00,
2013-04-26 08:35:00,42.6,30.9,30.46,WSW,248,2.0,7.0,63,0.00,SKC,,0.00,165.0,WeatherDisplay:10.37,2013-04-26 12:35:00,
2013-04-26 08:40:00,42.9,31.2,30.46,West,259,2.0,6.0,63,0.00,SKC,,0.00,211.0,WeatherDisplay:10.37,2013-04-26 12:40:00,
2013-04-26 08:45:00,43.4,31.6,30.47,WSW,258,2.0,5.0,63,0.00,SKC,,0.00,272.0,WeatherDisplay:10.37,2013-04-26 12:45:00,
2013-04-26 08:50:00,44.0,31.8,30.47,West,259,0.0,4.0,62,0.00,SKC,,0.00,236.0,WeatherDisplay:10.37,2013-04-26 12:50:00,
2013-04-26 08:55:00,44.5,31.5,30.47,West,259,2.0,4.0,60,0.00,SKC,,0.00,213.0,WeatherDisplay:10.37,2013-04-26 12:55:00,
2013-04-26 09:00:00,44.9,31.4,30.47,West,268,2.0,6.0,59,0.00,SKC,,0.00,190.0,WeatherDisplay:10.37,2013-04-26 13:00:00,
2013-04-26 09:05:00,45.0,30.7,30.47,West,268,2.0,7.0,57,0.00,SKC,,0.00,250.0,WeatherDisplay:10.37,2013-04-26 13:05:00,
2013-04-26 09:10:00,45.3,31.0,30.47,West,273,2.0,7.0,57,0.00,SKC,,0.00,330.0,WeatherDisplay:10.37,2013-04-26 13:10:00,
2013-04-26 09:15:00,45.5,30.7,30.47,West,274,3.0,8.0,56,0.00,SKC,,0.00,260.0,WeatherDisplay:10.37,2013-04-26 13:15:00,
2013-04-26 09:20:00,45.5,29.8,30.47,West,261,5.0,9.0,54,0.00,FEW,,0.00,376.0,WeatherDisplay:10.37,2013-04-26 13:20:00,
2013-04-26 09:25:00,45.8,31.4,30.47,West,264,2.0,5.0,57,0.00,FEW,,0.00,207.0,WeatherDisplay:10.37,2013-04-26 13:25:00,
2013-04-26 09:30:00,46.1,31.3,30.48,West,273,3.0,7.0,56,0.00,FEW,,0.00,318.0,WeatherDisplay:10.37,2013-04-26 13:30:00,
2013-04-26 09:35:00,46.4,30.6,30.48,WSW,256,5.0,8.0,54,0.00,FEW,,0.00,471.0,WeatherDisplay:10.37,2013-04-26 13:35:00,
2013-04-26 09:40:00,46.4,30.7,30.48,WSW,247,3.0,6.0,54,0.00,FEW,,0.00,517.0,WeatherDisplay:10.37,2013-04-26 13:40:00,
2013-04-26 09:45:00,46.7,30.5,30.48,WSW,253,0.0,7.0,53,0.00,FEW,,0.00,167.0,WeatherDisplay:10.37,2013-04-26 13:45:00,
2013-04-26 09:50:00,46.8,29.6,30.48,West,259,3.0,8.0,51,0.00,FEW,,0.00,348.0,WeatherDisplay:10.37,2013-04-26 13:50:00,
2013-04-26 09:55:00,47.0,27.3,30.48,West,267,3.0,8.0,46,0.00,FEW,,0.00,404.0,WeatherDisplay:10.37,2013-04-26 13:55:00,
2013-04-26 10:00:00,47.1,25.7,30.49,WNW,287,6.0,7.0,43,0.00,FEW,,0.00,469.0,WeatherDisplay:10.37,2013-04-26 14:00:00,
2013-04-26 10:05:00,47.2,27.9,30.49,WNW,286,3.0,7.0,47,0.00,FEW,,0.00,28.0,WeatherDisplay:10.37,2013-04-26 14:05:00,
2013-04-26 10:15:00,47.7,25.1,30.49,WNW,296,2.0,6.0,41,0.00,FEW,,0.00,397.0,WeatherDisplay:10.37,2013-04-26 14:15:00,
2013-04-26 10:25:00,48.3,26.8,30.49,WNW,284,1.0,6.0,43,0.00,FEW,,0.00,401.0,WeatherDisplay:10.37,2013-04-26 14:25:00,
2013-04-26 10:30:00,48.4,26.3,30.49,West,276,2.0,5.0,42,0.00,FEW,,0.00,130.0,WeatherDisplay:10.37,2013-04-26 14:30:00,
2013-04-26 10:35:00,48.2,25.0,30.49,NW,310,1.0,6.0,40,0.00,FEW,,0.00,418.0,WeatherDisplay:10.37,2013-04-26 14:35:00,
2013-04-26 10:40:00,48.0,26.0,30.49,NNW,330,1.0,4.0,42,0.00,FEW,,0.00,464.0,WeatherDisplay:10.37,2013-04-26 14:40:00,
2013-04-26 10:45:00,48.2,26.2,30.49,NW,319,0.0,5.0,42,0.00,FEW,,0.00,568.0,WeatherDisplay:10.37,2013-04-26 14:45:00,
2013-04-26 10:50:00,48.4,25.8,30.49,NW,310,2.0,5.0,41,0.00,FEW,,0.00,327.0,WeatherDisplay:10.37,2013-04-26 14:50:00,
2013-04-26 10:55:00,48.6,28.2,30.49,NW,304,1.0,6.0,45,0.00,FEW,,0.00,343.0,WeatherDisplay:10.37,2013-04-26 14:55:00,
2013-04-26 11:00:00,49.2,27.1,30.50,NW,305,2.0,7.0,42,0.00,FEW,,0.00,0.0,WeatherDisplay:10.37,2013-04-26 15:00:00,
2013-04-26 11:05:00,49.0,25.7,30.50,NW,313,2.0,7.0,40,0.00,FEW,,0.00,0.0,WeatherDisplay:10.37,2013-04-26 15:05:00,
2013-04-26 11:10:00,49.0,26.3,30.50,NW,308,0.0,7.0,41,0.00,FEW,,0.00,62.0,WeatherDisplay:10.37,2013-04-26 15:10:00,
2013-04-26 11:15:00,49.2,26.5,30.50,NW,319,3.0,6.0,41,0.00,FEW,,0.00,541.0,WeatherDisplay:10.37,2013-04-26 15:15:00,
2013-04-26 11:20:00,49.2,27.6,30.50,NNW,337,2.0,6.0,43,0.00,SCT,,0.00,552.0,WeatherDisplay:10.37,2013-04-26 15:20:00,
2013-04-26 11:25:00,49.9,28.2,30.50,NNW,330,1.0,5.0,43,0.00,SCT,,0.00,587.0,WeatherDisplay:10.37,2013-04-26 15:25:00,
2013-04-26 11:30:00,50.6,28.3,30.50,WNW,300,1.0,6.0,42,0.00,SCT,,0.00,800.0,WeatherDisplay:10.37,2013-04-26 15:30:00,
2013-04-26 11:35:00,51.0,27.5,30.50,WNW,291,1.0,4.0,40,0.00,SCT,,0.00,91.0,WeatherDisplay:10.37,2013-04-26 15:35:00,
2013-04-26 11:40:00,50.5,25.8,30.50,NW,313,1.0,4.0,38,0.00,SCT,,0.00,557.0,WeatherDisplay:10.37,2013-04-26 15:40:00,
2013-04-26 11:45:00,50.1,25.5,30.50,NW,321,3.0,6.0,38,0.00,SCT,,0.00,176.0,WeatherDisplay:10.37,2013-04-26 15:45:00,
2013-04-26 11:50:00,49.9,25.9,30.50,WNW,299,1.0,4.0,39,0.00,SCT,,0.00,149.0,WeatherDisplay:10.37,2013-04-26 15:50:00,
2013-04-26 11:55:00,49.9,27.1,30.50,WNW,296,1.0,6.0,41,0.00,SCT,,0.00,149.0,WeatherDisplay:10.37,2013-04-26 15:55:00,
2013-04-26 12:00:00,50.2,25.5,30.50,NW,313,3.0,7.0,38,0.00,SCT,,0.00,302.0,WeatherDisplay:10.37,2013-04-26 16:00:00,
2013-04-26 12:05:00,50.2,26.8,30.50,NW,313,1.0,7.0,40,0.00,SCT,,0.00,744.0,WeatherDisplay:10.37,2013-04-26 16:05:00,
2013-04-26 12:10:00,50.4,24.4,30.50,NW,307,2.0,8.0,36,0.00,SCT,,0.00,385.0,WeatherDisplay:10.37,2013-04-26 16:10:00,
2013-04-26 12:15:00,50.8,26.1,30.50,NW,304,1.0,6.0,38,0.00,SCT,,0.00,861.0,WeatherDisplay:10.37,2013-04-26 16:15:00,
2013-04-26 12:20:00,51.1,25.0,30.50,WNW,301,5.0,8.0,36,0.00,SCT,,0.00,128.0,WeatherDisplay:10.37,2013-04-26 16:20:00,
2013-04-26 12:25:00,51.1,25.7,30.50,WNW,296,3.0,7.0,37,0.00,SCT,,0.00,176.0,WeatherDisplay:10.37,2013-04-26 16:25:00,
2013-04-26 12:30:00,51.0,28.1,30.49,West,281,3.0,9.0,41,0.00,SCT,,0.00,898.0,WeatherDisplay:10.37,2013-04-26 16:30:00,
2013-04-26 12:35:00,51.6,26.1,30.49,WNW,283,2.0,6.0,37,0.00,SCT,,0.00,174.0,WeatherDisplay:10.37,2013-04-26 16:35:00,
2013-04-26 12:40:00,51.5,25.4,30.49,WNW,289,3.0,8.0,36,0.00,SCT,,0.00,1009.0,WeatherDisplay:10.37,2013-04-26 16:40:00,
2013-04-26 12:45:00,51.6,26.1,30.49,WNW,297,3.0,8.0,37,0.00,SCT,,0.00,691.0,WeatherDisplay:10.37,2013-04-26 16:45:00,
2013-04-26 12:50:00,51.6,25.5,30.49,NW,318,3.0,7.0,36,0.00,SCT,,0.00,977.0,WeatherDisplay:10.37,2013-04-26 16:50:00,
2013-04-26 12:55:00,51.2,25.8,30.49,NNW,330,3.0,7.0,37,0.00,SCT,,0.00,925.0,WeatherDisplay:10.37,2013-04-26 16:55:00,
2013-04-26 13:00:00,51.4,27.9,30.48,NW,325,6.0,9.0,40,0.00,SCT,,0.00,504.0,WeatherDisplay:10.37,2013-04-26 17:00:00,
2013-04-26 13:05:00,52.1,25.3,30.48,NW,309,3.0,8.0,35,0.00,SCT,,0.00,958.0,WeatherDisplay:10.37,2013-04-26 17:05:00,
2013-04-26 13:10:00,52.6,27.7,30.48,WNW,291,5.0,8.0,38,0.00,SCT,,0.00,946.0,WeatherDisplay:10.37,2013-04-26 17:10:00,
2013-04-26 13:15:00,52.7,27.8,30.48,WNW,292,5.0,10.0,38,0.00,SCT,,0.00,969.0,WeatherDisplay:10.37,2013-04-26 17:15:00,
2013-04-26 13:20:00,53.0,28.7,30.48,WNW,296,3.0,9.0,39,0.00,SCT,,0.00,926.0,WeatherDisplay:10.37,2013-04-26 17:20:00,
2013-04-26 13:25:00,53.3,28.9,30.48,WNW,295,0.0,7.0,39,0.00,SCT,,0.00,947.0,WeatherDisplay:10.37,2013-04-26 17:25:00,
2013-04-26 13:30:00,53.0,26.7,30.48,WNW,300,1.0,4.0,36,0.00,SCT,,0.00,963.0,WeatherDisplay:10.37,2013-04-26 17:30:00,
2013-04-26 13:35:00,53.4,27.1,30.48,East,84,3.0,7.0,36,0.00,SCT,,0.00,772.0,WeatherDisplay:10.37,2013-04-26 17:35:00,
2013-04-26 13:40:00,53.5,26.5,30.48,NE,34,6.0,9.0,35,0.00,SCT,,0.00,545.0,WeatherDisplay:10.37,2013-04-26 17:40:00,
2013-04-26 13:45:00,52.8,25.2,30.48,NNW,345,6.0,9.0,34,0.00,SCT,,0.00,870.0,WeatherDisplay:10.37,2013-04-26 17:45:00,
2013-04-26 13:50:00,52.3,26.1,30.48,North,358,6.0,8.0,36,0.00,SCT,,0.00,972.0,WeatherDisplay:10.37,2013-04-26 17:50:00,
2013-04-26 13:55:00,52.0,27.1,30.48,NNE,12,5.0,7.0,38,0.00,SCT,,0.00,940.0,WeatherDisplay:10.37,2013-04-26 17:55:00,
2013-04-26 14:00:00,52.0,25.8,30.48,North,3,5.0,8.0,36,0.00,SCT,,0.00,951.0,WeatherDisplay:10.37,2013-04-26 18:00:00,
2013-04-26 14:05:00,52.1,25.9,30.48,NNW,344,5.0,7.0,36,0.00,SCT,,0.00,916.0,WeatherDisplay:10.37,2013-04-26 18:05:00,
2013-04-26 14:10:00,52.5,26.2,30.48,NNW,332,1.0,5.0,36,0.00,SCT,,0.00,197.0,WeatherDisplay:10.37,2013-04-26 18:10:00,
2013-04-26 14:15:00,52.6,26.4,30.47,NNW,333,1.0,6.0,36,0.00,SCT,,0.00,279.0,WeatherDisplay:10.37,2013-04-26 18:15:00,
2013-04-26 14:20:00,52.4,26.9,30.47,NNW,342,5.0,7.0,37,0.00,SCT,,0.00,969.0,WeatherDisplay:10.37,2013-04-26 18:20:00,
2013-04-26 14:25:00,52.4,27.5,30.47,North,1,5.0,7.0,38,0.00,SCT,,0.00,969.0,WeatherDisplay:10.37,2013-04-26 18:25:00,
2013-04-26 14:30:00,52.4,28.1,30.48,North,11,2.0,6.0,39,0.00,SCT,,0.00,218.0,WeatherDisplay:10.37,2013-04-26 18:30:00,
2013-04-26 14:35:00,52.0,26.5,30.48,NNE,26,2.0,6.0,37,0.00,BKN,,0.00,160.0,WeatherDisplay:10.37,2013-04-26 18:35:00,
2013-04-26 14:40:00,51.9,27.1,30.48,NNE,18,0.0,3.0,38,0.00,BKN,,0.00,258.0,WeatherDisplay:10.37,2013-04-26 18:40:00,
2013-04-26 14:45:00,52.1,26.6,30.48,North,351,0.0,1.0,37,0.00,BKN,,0.00,1020.0,WeatherDisplay:10.37,2013-04-26 18:45:00,
2013-04-26 14:50:00,52.7,26.4,30.48,North,359,5.0,8.0,36,0.00,BKN,,0.00,1020.0,WeatherDisplay:10.37,2013-04-26 18:50:00,
2013-04-26 14:55:00,52.9,28.0,30.48,North,356,0.0,7.0,38,0.00,BKN,,0.00,250.0,WeatherDisplay:10.37,2013-04-26 18:55:00,
2013-04-26 15:00:00,53.0,28.7,30.48,NW,325,3.0,6.0,39,0.00,BKN,,0.00,320.0,WeatherDisplay:10.37,2013-04-26 19:00:00,
2013-04-26 15:05:00,53.6,29.8,30.48,South,188,2.0,8.0,40,0.00,BKN,,0.00,925.0,WeatherDisplay:10.37,2013-04-26 19:05:00,
2013-04-26 15:10:00,54.4,30.5,30.48,SSE,155,3.0,8.0,40,0.00,BKN,,0.00,911.0,WeatherDisplay:10.37,2013-04-26 19:10:00,
2013-04-26 15:15:00,55.1,29.3,30.47,ESE,122,3.0,8.0,37,0.00,BKN,,0.00,213.0,WeatherDisplay:10.37,2013-04-26 19:15:00,
2013-04-26 15:20:00,55.2,31.3,30.47,SE,124,5.0,12.0,40,0.00,SCT,,0.00,914.0,WeatherDisplay:10.37,2013-04-26 19:20:00,
2013-04-26 15:25:00,55.8,29.2,30.47,SE,146,5.0,8.0,36,0.00,SCT,,0.00,909.0,WeatherDisplay:10.37,2013-04-26 19:25:00,
2013-04-26 15:30:00,55.7,29.1,30.46,SE,124,5.0,10.0,36,0.00,SCT,,0.00,860.0,WeatherDisplay:10.37,2013-04-26 19:30:00,
2013-04-26 15:35:00,55.2,29.4,30.46,East,100,7.0,10.0,37,0.00,SCT,,0.00,840.0,WeatherDisplay:10.37,2013-04-26 19:35:00,
2013-04-26 15:40:00,54.7,28.9,30.46,East,98,7.0,12.0,37,0.00,SCT,,0.00,729.0,WeatherDisplay:10.37,2013-04-26 19:40:00,
2013-04-26 15:45:00,54.7,28.9,30.46,SE,128,6.0,12.0,37,0.00,SCT,,0.00,824.0,WeatherDisplay:10.37,2013-04-26 19:45:00,
2013-04-26 15:50:00,54.5,28.7,30.45,SE,145,5.0,10.0,37,0.00,SCT,,0.00,737.0,WeatherDisplay:10.37,2013-04-26 19:50:00,
2013-04-26 15:55:00,54.8,28.3,30.45,SE,133,7.0,12.0,36,0.00,SCT,,0.00,694.0,WeatherDisplay:10.37,2013-04-26 19:55:00,
2013-04-26 16:00:00,55.0,28.5,30.45,SE,134,5.0,12.0,36,0.00,SCT,,0.00,652.0,WeatherDisplay:10.37,2013-04-26 20:00:00,
2013-04-26 16:05:00,55.2,29.4,30.45,SE,132,1.0,9.0,37,0.00,SCT,,0.00,635.0,WeatherDisplay:10.37,2013-04-26 20:05:00,
2013-04-26 16:10:00,55.0,27.9,30.45,ESE,118,6.0,12.0,35,0.00,SCT,,0.00,666.0,WeatherDisplay:10.37,2013-04-26 20:10:00,
2013-04-26 16:15:00,55.3,28.7,30.45,ESE,123,2.0,9.0,36,0.00,SCT,,0.00,596.0,WeatherDisplay:10.37,2013-04-26 20:15:00,
2013-04-26 16:20:00,55.4,28.9,30.45,SSE,151,2.0,9.0,36,0.00,BKN,,0.00,527.0,WeatherDisplay:10.37,2013-04-26 20:20:00,
2013-04-26 16:25:00,55.1,28.6,30.45,SE,133,2.0,5.0,36,0.00,BKN,,0.00,526.0,WeatherDisplay:10.37,2013-04-26 20:25:00,
2013-04-26 16:30:00,55.2,29.3,30.44,SSE,162,2.0,8.0,37,0.00,BKN,,0.00,420.0,WeatherDisplay:10.37,2013-04-26 20:30:00,
2013-04-26 16:35:00,55.4,28.2,30.44,South,182,1.0,5.0,35,0.00,BKN,,0.00,520.0,WeatherDisplay:10.37,2013-04-26 20:35:00,
2013-04-26 16:40:00,55.5,28.3,30.44,SSE,151,1.0,6.0,35,0.00,BKN,,0.00,436.0,WeatherDisplay:10.37,2013-04-26 20:40:00,
2013-04-26 16:45:00,55.2,27.3,30.44,SSE,153,7.0,13.0,34,0.00,BKN,,0.00,476.0,WeatherDisplay:10.37,2013-04-26 20:45:00,
2013-04-26 16:50:00,55.1,28.6,30.44,SSE,161,5.0,8.0,36,0.00,BKN,,0.00,417.0,WeatherDisplay:10.37,2013-04-26 20:50:00,
2013-04-26 16:55:00,54.8,26.9,30.44,SSE,166,2.0,8.0,34,0.00,BKN,,0.00,448.0,WeatherDisplay:10.37,2013-04-26 20:55:00,
2013-04-26 17:00:00,54.8,28.3,30.44,SE,136,3.0,10.0,36,0.00,BKN,,0.00,367.0,WeatherDisplay:10.37,2013-04-26 21:00:00,
2013-04-26 17:05:00,54.6,27.4,30.44,SSE,147,5.0,10.0,35,0.00,BKN,,0.00,250.0,WeatherDisplay:10.37,2013-04-26 21:05:00,
2013-04-26 17:10:00,54.2,26.4,30.44,SSE,152,6.0,10.0,34,0.00,BKN,,0.00,297.0,WeatherDisplay:10.37,2013-04-26 21:10:00,
2013-04-26 17:15:00,53.9,26.8,30.43,SSE,147,3.0,7.0,35,0.00,BKN,,0.00,279.0,WeatherDisplay:10.37,2013-04-26 21:15:00,
2013-04-26 17:20:00,53.9,25.4,30.43,SSE,147,3.0,10.0,33,0.00,BKN,,0.00,334.0,WeatherDisplay:10.37,2013-04-26 21:20:00,
2013-04-26 17:25:00,53.9,26.1,30.43,SSE,151,5.0,8.0,34,0.00,BKN,,0.00,304.0,WeatherDisplay:10.37,2013-04-26 21:25:00,
2013-04-26 17:30:00,53.9,26.1,30.43,SE,137,1.0,8.0,34,0.00,BKN,,0.00,297.0,WeatherDisplay:10.37,2013-04-26 21:30:00,
2013-04-26 17:35:00,54.1,25.6,30.43,SE,140,5.0,7.0,33,0.00,BKN,,0.00,264.0,WeatherDisplay:10.37,2013-04-26 21:35:00,
2013-04-26 17:40:00,53.9,26.1,30.43,SSE,156,1.0,6.0,34,0.00,BKN,,0.00,200.0,WeatherDisplay:10.37,2013-04-26 21:40:00,
2013-04-26 17:45:00,53.6,25.9,30.43,SE,142,1.0,5.0,34,0.00,BKN,,0.00,192.0,WeatherDisplay:10.37,2013-04-26 21:45:00,
2013-04-26 17:50:00,53.6,25.9,30.43,SSE,160,5.0,7.0,34,0.00,BKN,,0.00,190.0,WeatherDisplay:10.37,2013-04-26 21:50:00,
2013-04-26 17:55:00,53.5,25.8,30.43,South,171,2.0,7.0,34,0.00,BKN,,0.00,178.0,WeatherDisplay:10.37,2013-04-26 21:55:00,
2013-04-26 18:00:00,53.3,25.6,30.43,SSE,164,5.0,9.0,34,0.00,BKN,,0.00,162.0,WeatherDisplay:10.37,2013-04-26 22:00:00,
2013-04-26 18:05:00,53.1,26.1,30.43,SSE,160,0.0,6.0,35,0.00,BKN,,0.00,141.0,WeatherDisplay:10.37,2013-04-26 22:05:00,
2013-04-26 18:10:00,53.0,26.7,30.43,South,171,2.0,8.0,36,0.00,BKN,,0.00,127.0,WeatherDisplay:10.37,2013-04-26 22:10:00,
2013-04-26 18:15:00,52.9,26.6,30.43,South,181,0.0,4.0,36,0.00,BKN,,0.00,98.0,WeatherDisplay:10.37,2013-04-26 22:15:00,
2013-04-26 18:20:00,52.9,26.6,30.43,SSE,158,3.0,7.0,36,0.00,BKN,,0.00,84.0,WeatherDisplay:10.37,2013-04-26 22:20:00,
2013-04-26 18:25:00,52.4,25.5,30.43,SSE,160,2.0,8.0,35,0.00,BKN,,0.00,74.0,WeatherDisplay:10.37,2013-04-26 22:25:00,
2013-04-26 18:30:00,52.1,25.9,30.43,SSE,166,3.0,7.0,36,0.00,BKN,,0.00,70.0,WeatherDisplay:10.37,2013-04-26 22:30:00,
2013-04-26 18:35:00,51.9,25.8,30.43,South,171,2.0,8.0,36,0.00,BKN,,0.00,70.0,WeatherDisplay:10.37,2013-04-26 22:35:00,
2013-04-26 18:40:00,51.7,25.6,30.43,SSE,154,2.0,7.0,36,0.00,BKN,,0.00,69.0,WeatherDisplay:10.37,2013-04-26 22:40:00,
2013-04-26 18:45:00,51.6,25.5,30.43,SE,134,2.0,7.0,36,0.00,BKN,,0.00,67.0,WeatherDisplay:10.37,2013-04-26 22:45:00,
2013-04-26 18:55:00,51.4,25.3,30.43,ESE,116,2.0,6.0,36,0.00,BKN,,0.00,56.0,WeatherDisplay:10.37,2013-04-26 22:55:00,
2013-04-26 19:00:00,51.4,26.0,30.43,ESE,122,0.0,6.0,37,0.00,BKN,,0.00,53.0,WeatherDisplay:10.37,2013-04-26 23:00:00,
2013-04-26 19:05:00,51.4,26.6,30.43,SE,129,1.0,3.0,38,0.00,BKN,,0.00,69.0,WeatherDisplay:10.37,2013-04-26 23:05:00,
2013-04-26 19:10:00,51.3,25.9,30.43,SE,141,0.0,8.0,37,0.00,BKN,,0.00,79.0,WeatherDisplay:10.37,2013-04-26 23:10:00,
2013-04-26 19:15:00,51.3,26.5,30.43,SE,144,0.0,6.0,38,0.00,BKN,,0.00,58.0,WeatherDisplay:10.37,2013-04-26 23:15:00,
2013-04-26 19:20:00,51.3,25.9,30.43,SE,143,3.0,6.0,37,0.00,BKN,,0.00,40.0,WeatherDisplay:10.37,2013-04-26 23:20:00,
2013-04-26 19:25:00,51.3,26.5,30.43,SE,141,0.0,3.0,38,0.00,BKN,,0.00,26.0,WeatherDisplay:10.37,2013-04-26 23:25:00,
2013-04-26 19:30:00,51.3,26.5,30.43,SE,140,2.0,5.0,38,0.00,BKN,,0.00,23.0,WeatherDisplay:10.37,2013-04-26 23:30:00,
2013-04-26 19:35:00,51.1,26.3,30.43,SSE,148,2.0,5.0,38,0.00,BKN,,0.00,23.0,WeatherDisplay:10.37,2013-04-26 23:35:00,
2013-04-26 19:40:00,51.0,26.3,30.43,SSE,154,1.0,4.0,38,0.00,BKN,,0.00,16.0,WeatherDisplay:10.37,2013-04-26 23:40:00,
2013-04-26 19:45:00,50.9,26.1,30.42,SE,134,1.0,5.0,38,0.00,BKN,,0.00,0.0,WeatherDisplay:10.37,2013-04-26 23:45:00,
2013-04-26 19:50:00,50.7,25.3,30.42,SE,133,1.0,6.0,37,0.00,BKN,,0.00,0.0,WeatherDisplay:10.37,2013-04-26 23:50:00,
2013-04-26 20:05:00,50.0,25.3,30.42,SE,131,0.0,4.0,38,0.00,BKN,,0.00,0.0,WeatherDisplay:10.37,2013-04-27 00:05:00,
2013-04-26 20:15:00,49.5,25.5,30.42,SE,128,0.0,1.0,39,0.00,BKN,,0.00,0.0,WeatherDisplay:10.37,2013-04-27 00:15:00,
2013-04-26 20:20:00,49.2,26.5,30.42,SE,128,0.0,0.0,41,0.00,SCT,,0.00,0.0,WeatherDisplay:10.37,2013-04-27 00:20:00,
2013-04-26 20:25:00,49.0,26.3,30.42,SE,128,0.0,0.0,41,0.00,SCT,,0.00,0.0,WeatherDisplay:10.37,2013-04-27 00:25:00,
2013-04-26 20:35:00,48.4,26.3,30.42,SE,128,0.0,0.0,42,0.00,SCT,,0.00,0.0,WeatherDisplay:10.37,2013-04-27 00:35:00,
2013-04-26 20:40:00,48.0,26.6,30.42,SE,128,0.0,0.0,43,0.00,SCT,,0.00,0.0,WeatherDisplay:10.37,2013-04-27 00:40:00,
2013-04-26 20:45:00,47.8,27.0,30.43,SE,128,0.0,0.0,44,0.00,SCT,,0.00,0.0,WeatherDisplay:10.37,2013-04-27 00:45:00,
2013-04-26 20:50:00,47.6,26.7,30.43,SE,128,0.0,0.0,44,0.00,SCT,,0.00,0.0,WeatherDisplay:10.37,2013-04-27 00:50:00,
2013-04-26 20:55:00,47.3,27.0,30.43,SE,128,0.0,2.0,45,0.00,SCT,,0.00,0.0,WeatherDisplay:10.37,2013-04-27 00:55:00,
2013-04-26 21:00:00,47.1,26.8,30.42,SE,128,1.0,3.0,45,0.00,SCT,,0.00,0.0,WeatherDisplay:10.37,2013-04-27 01:00:00,
2013-04-26 21:05:00,46.8,27.1,30.42,SE,128,0.0,1.0,46,0.00,SCT,,0.00,0.0,WeatherDisplay:10.37,2013-04-27 01:05:00,
2013-04-26 21:10:00,46.5,26.8,30.42,SE,128,0.0,3.0,46,0.00,SCT,,0.00,0.0,WeatherDisplay:10.37,2013-04-27 01:10:00,
2013-04-26 21:15:00,46.2,26.5,30.42,SE,128,0.0,4.0,46,0.00,SCT,,0.00,0.0,WeatherDisplay:10.37,2013-04-27 01:15:00,
2013-04-26 21:20:00,46.1,26.4,30.41,SE,126,0.0,4.0,46,0.00,FEW,,0.00,0.0,WeatherDisplay:10.37,2013-04-27 01:20:00,
2013-04-26 21:25:00,45.9,26.8,30.41,ESE,122,1.0,5.0,47,0.00,FEW,,0.00,0.0,WeatherDisplay:10.37,2013-04-27 01:25:00,
2013-04-26 21:30:00,45.8,26.7,30.41,ESE,117,1.0,4.0,47,0.00,FEW,,0.00,0.0,WeatherDisplay:10.37,2013-04-27 01:30:00,
2013-04-26 21:35:00,45.5,26.9,30.41,ESE,117,1.0,3.0,48,0.00,FEW,,0.00,0.0,WeatherDisplay:10.37,2013-04-27 01:35:00,
2013-04-26 21:40:00,45.3,26.7,30.41,ESE,117,1.0,4.0,48,0.00,FEW,,0.00,0.0,WeatherDisplay:10.37,2013-04-27 01:40:00,
2013-04-26 21:45:00,45.0,27.0,30.41,ESE,117,1.0,4.0,49,0.00,FEW,,0.00,0.0,WeatherDisplay:10.37,2013-04-27 01:45:00,
2013-04-26 21:50:00,44.9,26.9,30.41,ESE,115,2.0,4.0,49,0.00,FEW,,0.00,0.0,WeatherDisplay:10.37,2013-04-27 01:50:00,
2013-04-26 21:55:00,44.6,26.6,30.41,ESE,114,2.0,4.0,49,0.00,FEW,,0.00,0.0,WeatherDisplay:10.37,2013-04-27 01:55:00,
2013-04-26 22:00:00,44.5,27.0,30.42,ESE,115,2.0,4.0,50,0.00,FEW,,0.00,0.0,WeatherDisplay:10.37,2013-04-27 02:00:00,
2013-04-26 22:05:00,44.5,27.0,30.42,ESE,118,2.0,5.0,50,0.00,FEW,,0.00,0.0,WeatherDisplay:10.37,2013-04-27 02:05:00,
2013-04-26 22:10:00,44.3,26.8,30.42,ESE,118,0.0,5.0,50,0.00,FEW,,0.00,0.0,WeatherDisplay:10.37,2013-04-27 02:10:00,
2013-04-26 22:15:00,44.2,26.7,30.42,ESE,118,1.0,4.0,50,0.00,FEW,,0.00,0.0,WeatherDisplay:10.37,2013-04-27 02:15:00,
2013-04-26 22:20:00,44.0,26.5,30.42,ESE,118,0.0,2.0,50,0.00,FEW,,0.00,0.0,WeatherDisplay:10.37,2013-04-27 02:20:00,
2013-04-26 22:25:00,43.9,26.9,30.42,ESE,118,0.0,3.0,51,0.00,FEW,,0.00,0.0,WeatherDisplay:10.37,2013-04-27 02:25:00,
2013-04-26 22:30:00,43.6,26.6,30.42,ESE,118,0.0,3.0,51,0.00,FEW,,0.00,0.0,WeatherDisplay:10.37,2013-04-27 02:30:00,
2013-04-26 22:35:00,43.4,26.5,30.42,ESE,118,0.0,3.0,51,0.00,FEW,,0.00,0.0,WeatherDisplay:10.37,2013-04-27 02:35:00,
2013-04-26 22:40:00,43.1,26.7,30.42,ESE,118,0.0,3.0,52,0.00,FEW,,0.00,0.0,WeatherDisplay:10.37,2013-04-27 02:40:00,
2013-04-26 22:45:00,42.9,26.5,30.42,ESE,118,0.0,3.0,52,0.00,FEW,,0.00,0.0,WeatherDisplay:10.37,2013-04-27 02:45:00,
2013-04-26 22:50:00,42.7,26.3,30.42,ESE,118,1.0,3.0,52,0.00,FEW,,0.00,0.0,WeatherDisplay:10.37,2013-04-27 02:50:00,
2013-04-26 22:55:00,42.6,25.7,30.42,ESE,119,2.0,4.0,51,0.00,FEW,,0.00,0.0,WeatherDisplay:10.37,2013-04-27 02:55:00,
2013-04-26 23:00:00,42.6,25.7,30.42,ESE,123,1.0,5.0,51,0.00,FEW,,0.00,0.0,WeatherDisplay:10.37,2013-04-27 03:00:00,
2013-04-26 23:05:00,42.6,25.7,30.42,SE,125,0.0,3.0,51,0.00,FEW,,0.00,0.0,WeatherDisplay:10.37,2013-04-27 03:05:00,
2013-04-26 23:10:00,42.5,26.1,30.42,SE,125,1.0,3.0,52,0.00,FEW,,0.00,0.0,WeatherDisplay:10.37,2013-04-27 03:10:00,
2013-04-26 23:15:00,42.4,26.0,30.42,SE,125,0.0,2.0,52,0.00,FEW,,0.00,0.0,WeatherDisplay:10.37,2013-04-27 03:15:00,
2013-04-26 23:20:00,42.4,26.0,30.42,SE,125,0.0,2.0,52,0.00,BKN,,0.00,0.0,WeatherDisplay:10.37,2013-04-27 03:20:00,
2013-04-26 23:25:00,42.4,25.5,30.42,SE,125,0.0,3.0,51,0.00,BKN,,0.00,0.0,WeatherDisplay:10.37,2013-04-27 03:25:00,
2013-04-26 23:30:00,42.4,25.5,30.42,SE,125,0.0,1.0,51,0.00,BKN,,0.00,0.0,WeatherDisplay:10.37,2013-04-27 03:30:00,
2013-04-26 23:35:00,42.6,25.7,30.42,SE,125,0.0,3.0,51,0.00,BKN,,0.00,0.0,WeatherDisplay:10.37,2013-04-27 03:35:00,
2013-04-26 23:40:00,42.8,25.5,30.42,SE,125,1.0,3.0,50,0.00,BKN,,0.00,0.0,WeatherDisplay:10.37,2013-04-27 03:40:00,
2013-04-26 23:45:00,43.0,25.6,30.42,SE,126,1.0,5.0,50,0.00,BKN,,0.00,0.0,WeatherDisplay:10.37,2013-04-27 03:45:00,
2013-04-26 23:50:00,43.1,25.2,30.42,SE,125,2.0,6.0,49,0.00,BKN,,0.00,0.0,WeatherDisplay:10.37,2013-04-27 03:50:00,
2013-04-26 23:55:00,43.3,25.4,30.42,ESE,121,3.0,5.0,49,0.00,BKN,,0.00,0.0,WeatherDisplay:10.37,2013-04-27 03:55:00,